Regional Weather Roundup
Issued by NWS

Home | Current Version | Previous Version | Graphics & Text | Print | Product List | Glossary On
Versions: 1 2 3 4 5 6 7 8 9 10 11 12 13 14 15 16 17 18 19 20 21 22 23 24 25 26 27 28 29 30 31 32 33 34 35 36 37 38 39 40 41 42 43 44 45 46 47 48 49 50
000
ASUS43 KLSX 021407
RWRMO

WEATHER SUMMARY FOR MISSOURI
NATIONAL WEATHER SERVICE SPRINGFIELD MO
900 AM CDT WED SEP 02 2015

NOTE: "FAIR" INDICATES FEW OR NO CLOUDS BELOW 12,000 FEET WITH NO
       SIGNIFICANT WEATHER AND/OR OBSTRUCTIONS TO VISIBILITY.
       CURRENT SKY AND/OR WEATHER CONDITIONS ARE NOT AVAILABLE FOR
       CHILLICOTHE AND FARMINGTON.

MOZ001>031-035>038-043-044-053-054-021500-
...NORTHERN AND WESTERN MISSOURI...

CITY           SKY/WX    TMP DP  RH WIND       PRES   REMARKS
KANSAS CTY INT CLOUDY    72  67  84 NE5       30.07R
KANSAS C DTWN  CLOUDY    75  66  73 CALM      30.06R
LEE`S SUMMIT   PTSUNNY   74  66  76 SW7       30.08R
ST JOSEPH      LGT RAIN  71  69  93 S7        30.04F FOG
CHILLICOTHE      N/A     72  68  87 CALM      30.10R
KIRKSVILLE     CLOUDY    73  68  84 SW5       30.10R

$$
MOZ066>068-077>081-088>096-101>105-021500-
...SOUTHWEST MISSOURI...

CITY           SKY/WX    TMP DP  RH WIND       PRES   REMARKS
SPRINGFIELD    MOSUNNY   76  67  73 S10       30.11S
JOPLIN         SUNNY     77  68  73 S12G23    30.09S

$$
MOZ032>034-039>042-045>050-055>058-069>072-021500-
...CENTRAL MISSOURI...

CITY           SKY/WX    TMP DP  RH WIND       PRES   REMARKS
COLUMBIA       MOSUNNY   76  70  82 S8        30.11R
JEFFERSON CITY SUNNY     76  69  79 CALM      30.10R
ROLLA          MOSUNNY   78  68  71 S7        30.12R
SEDALIA        PTSUNNY   76  68  76 SW8       30.11R
WHITEMAN AFB   MOSUNNY   74  68  81 SW12      30.08R
WARRENSBURG    MOSUNNY   73  66  78 S6        30.08
OSAGE BEACH    SUNNY     75  66  73 S3        30.11S

$$
MOZ051-052-059>065-021500-
...EAST CENTRAL MISSOURI...

CITY           SKY/WX    TMP DP  RH WIND       PRES   REMARKS
ST LOUIS INTL  MOSUNNY   82  68  62 SW10      30.11S
SPIRIT OF STL  MOSUNNY   79  71  76 W7        30.09S
ST CHARLES     SUNNY     78  71  79 CALM      30.10S

$$
MOZ072>076-082>087-097>100-106>115-021500-
...SOUTH CENTRAL AND SOUTHEAST MISSOURI...

CITY           SKY/WX    TMP DP  RH WIND       PRES   REMARKS
CAPE GIRARDEAU SUNNY     77  72  84 E3        30.13S
FARMINGTON     SUNNY     75  72  88 S6        30.16S
POPLAR BLUFF   SUNNY     76  71  85 VRB3      30.12S
WEST PLAINS    SUNNY     75  69  81 S5        30.15F

$$


USA.gov is the U.S. government's official web portal to all federal, state and local government web resources and services.